Meteo pe oră la Alia

Astăzi, 25 Iunie, Vineri

Timp Temperatura Precipitaţii Vânt Presiune Umiditate
00:00 +28°C° 0 mm 1 m/s 712 mmHg 35%
01:00 +28°C° 0 mm 2 m/s 712 mmHg 31%
02:00 +28°C° 0 mm 2 m/s 712 mmHg 31%
03:00 +28°C° 0 mm 2 m/s 711 mmHg 31%
04:00 +27°C° 0 mm 2 m/s 711 mmHg 31%
05:00 +28°C° 0 mm 2 m/s 712 mmHg 32%
06:00 +29°C° 0 mm 1 m/s 712 mmHg 33%
07:00 +30°C° 0 mm 1 m/s 712 mmHg 33%
08:00 +32°C° 0 mm 2 m/s 713 mmHg 30%
09:00 +35°C° 0 mm 2 m/s 713 mmHg 26%
10:00 +37°C° 0 mm 3 m/s 713 mmHg 22%
11:00 +38°C° 0 mm 3 m/s 713 mmHg 20%
12:00 +38°C° 0 mm 3 m/s 713 mmHg 19%
13:00 +39°C° 0 mm 3 m/s 713 mmHg 17%
14:00 +40°C° 0 mm 4 m/s 712 mmHg 17%
15:00 +40°C° 0 mm 4 m/s 712 mmHg 17%
16:00 +40°C° 0 mm 5 m/s 711 mmHg 16%
17:00 +36°C° 0 mm 4 m/s 711 mmHg 25%
18:00 +32°C° 0 mm 2 m/s 711 mmHg 34%
19:00 +30°C° 0 mm 1 m/s 711 mmHg 43%
20:00 +29°C° 0 mm 1 m/s 711 mmHg 43%
21:00 +28°C° 0 mm 1 m/s 711 mmHg 44%
22:00 +27°C° 0 mm 1 m/s 711 mmHg 44%
23:00 +27°C° 0 mm 1 m/s 711 mmHg 43%

Mâine, 26 Iunie, Sâmbătă

Timp Temperatura Precipitaţii Vânt Presiune Umiditate
00:00 +27°C° 0 mm 1 m/s 711 mmHg 43%
01:00 +26°C° 0 mm 1 m/s 710 mmHg 42%
02:00 +26°C° 0 mm 1 m/s 710 mmHg 45%
03:00 +25°C° 0 mm 1 m/s 711 mmHg 48%
04:00 +24°C° 0 mm 1 m/s 711 mmHg 50%
05:00 +26°C° 0 mm 1 m/s 711 mmHg 45%
06:00 +28°C° 0 mm 1 m/s 711 mmHg 40%
07:00 +29°C° 0 mm 1 m/s 711 mmHg 35%
08:00 +31°C° 0 mm 2 m/s 711 mmHg 32%
09:00 +34°C° 0 mm 2 m/s 711 mmHg 29%
10:00 +36°C° 0 mm 3 m/s 712 mmHg 26%
11:00 +37°C° 0 mm 3 m/s 711 mmHg 25%
12:00 +37°C° 0 mm 4 m/s 711 mmHg 25%
13:00 +38°C° 0 mm 4 m/s 711 mmHg 24%
14:00 +37°C° 0 mm 4 m/s 711 mmHg 25%
15:00 +37°C° 0 mm 4 m/s 710 mmHg 26%
16:00 +36°C° 0 mm 4 m/s 710 mmHg 27%
17:00 +34°C° 0 mm 3 m/s 710 mmHg 33%
18:00 +31°C° 0 mm 2 m/s 710 mmHg 38%
19:00 +29°C° 0 mm 1 m/s 710 mmHg 44%
20:00 +29°C° 0 mm 1 m/s 710 mmHg 45%
21:00 +28°C° 0 mm 1 m/s 710 mmHg 45%
22:00 +27°C° 0 mm 1 m/s 711 mmHg 45%
23:00 +27°C° 0 mm 1 m/s 710 mmHg 45%

Poimâine, 27 Iunie, Duminică

Timp Temperatura Precipitaţii Vânt Presiune Umiditate
00:00 +27°C° 0 mm 1 m/s 710 mmHg 45%
01:00 +27°C° 0 mm 1 m/s 709 mmHg 44%
02:00 +26°C° 0 mm 1 m/s 709 mmHg 45%
03:00 +24°C° 0 mm 0 m/s 709 mmHg 45%
04:00 +23°C° 0 mm 0 m/s 709 mmHg 46%
05:00 +27°C° 0 mm 1 m/s 709 mmHg 41%
06:00 +29°C° 0 mm 1 m/s 710 mmHg 36%
07:00 +31°C° 0 mm 1 m/s 710 mmHg 31%
08:00 +32°C° 0 mm 2 m/s 710 mmHg 28%
09:00 +35°C° 0 mm 2 m/s 710 mmHg 24%
10:00 +37°C° 0 mm 3 m/s 711 mmHg 21%
11:00 +38°C° 0 mm 4 m/s 710 mmHg 21%
12:00 +38°C° 0 mm 4 m/s 710 mmHg 20%
13:00 +40°C° 0 mm 5 m/s 710 mmHg 20%
14:00 +38°C° 0 mm 4 m/s 710 mmHg 20%
15:00 +38°C° 0 mm 4 m/s 710 mmHg 21%
16:00 +37°C° 0 mm 3 m/s 710 mmHg 22%
17:00 +35°C° 0 mm 3 m/s 710 mmHg 25%
18:00 +34°C° 0 mm 3 m/s 710 mmHg 28%
19:00 +33°C° 0 mm 3 m/s 710 mmHg 31%
20:00 +30°C° 0 mm 2 m/s 710 mmHg 33%
21:00 +29°C° 0 mm 2 m/s 710 mmHg 35%
22:00 +28°C° 0 mm 2 m/s 710 mmHg 37%
23:00 +27°C° 0 mm 1 m/s 710 mmHg 38%

28 Iunie, Luni

Timp Temperatura Precipitaţii Vânt Presiune Umiditate
00:00 +27°C° 0 mm 1 m/s 710 mmHg 39%
01:00 +26°C° 0 mm 1 m/s 710 mmHg 41%
02:00 +26°C° 0 mm 1 m/s 710 mmHg 40%
03:00 +26°C° 0 mm 1 m/s 709 mmHg 39%
04:00 +26°C° 0 mm 1 m/s 709 mmHg 38%
05:00 +27°C° 0 mm 1 m/s 709 mmHg 34%
06:00 +29°C° 0 mm 1 m/s 710 mmHg 30%
07:00 +31°C° 0 mm 1 m/s 711 mmHg 26%
08:00 +34°C° 0.1 mm 2 m/s 711 mmHg 23%
09:00 +36°C° 0.1 mm 2 m/s 711 mmHg 19%
10:00 +38°C° 0.1 mm 2 m/s 711 mmHg 16%
11:00 +39°C° 0 mm 3 m/s 711 mmHg 15%
12:00 +41°C° 0 mm 4 m/s 711 mmHg 14%
13:00 +42°C° 0 mm 4 m/s 711 mmHg 13%
14:00 +41°C° 0 mm 4 m/s 711 mmHg 14%
15:00 +40°C° 0 mm 4 m/s 711 mmHg 14%
16:00 +40°C° 0 mm 4 m/s 711 mmHg 15%
17:00 +37°C° 0 mm 3 m/s 711 mmHg 19%
18:00 +34°C° 0 mm 2 m/s 711 mmHg 24%
19:00 +31°C° 0 mm 2 m/s 711 mmHg 28%
20:00 +30°C° 0 mm 1 m/s 711 mmHg 29%
21:00 +29°C° 0 mm 1 m/s 711 mmHg 31%
22:00 +26°C° 0 mm 0 m/s 711 mmHg 32%
23:00 +28°C° 0 mm 1 m/s 711 mmHg 29%

29 Iunie, Marţi

Timp Temperatura Precipitaţii Vânt Presiune Umiditate
00:00 +28°C° 0 mm 2 m/s 710 mmHg 27%
01:00 +28°C° 0 mm 2 m/s 710 mmHg 24%
02:00 +28°C° 0 mm 2 m/s 710 mmHg 24%
03:00 +28°C° 0 mm 1 m/s 710 mmHg 25%
04:00 +27°C° 0 mm 1 m/s 710 mmHg 25%
05:00 +29°C° 0 mm 1 m/s 710 mmHg 25%
06:00 +30°C° 0 mm 1 m/s 711 mmHg 25%
07:00 +31°C° 0 mm 1 m/s 711 mmHg 25%
08:00 +33°C° 0 mm 1 m/s 711 mmHg 22%
09:00 +35°C° 0 mm 1 m/s 711 mmHg 18%
10:00 +39°C° 0 mm 2 m/s 712 mmHg 14%
11:00 +40°C° 0 mm 2 m/s 711 mmHg 13%
12:00 +41°C° 0 mm 2 m/s 711 mmHg 12%
13:00 +43°C° 0 mm 3 m/s 711 mmHg 11%
14:00 +42°C° 0 mm 3 m/s 711 mmHg 13%
15:00 +41°C° 0 mm 4 m/s 711 mmHg 15%
16:00 +40°C° 0 mm 4 m/s 711 mmHg 17%
17:00 +37°C° 0 mm 3 m/s 710 mmHg 23%
18:00 +34°C° 0 mm 2 m/s 710 mmHg 29%
19:00 +31°C° 0 mm 1 m/s 710 mmHg 35%
20:00 +30°C° 0 mm 1 m/s 710 mmHg 34%
21:00 +29°C° 0 mm 1 m/s 710 mmHg 33%
22:00 +29°C° 0 mm 1 m/s 710 mmHg 32%
23:00 +28°C° 0 mm 1 m/s 710 mmHg 30%

30 Iunie, Miercuri

Timp Temperatura Precipitaţii Vânt Presiune Umiditate
00:00 +28°C° 0 mm 1 m/s 710 mmHg 29%
01:00 +28°C° 0 mm 1 m/s 710 mmHg 27%
02:00 +28°C° 0 mm 1 m/s 709 mmHg 26%
03:00 +28°C° 0 mm 1 m/s 709 mmHg 26%
04:00 +28°C° 0 mm 2 m/s 709 mmHg 26%
05:00 +29°C° 0 mm 2 m/s 709 mmHg 25%
06:00 +30°C° 0 mm 2 m/s 709 mmHg 24%
07:00 +32°C° 0 mm 2 m/s 710 mmHg 23%
08:00 +35°C° 0 mm 2 m/s 710 mmHg 21%
09:00 +37°C° 0 mm 3 m/s 710 mmHg 19%
10:00 +39°C° 0 mm 3 m/s 710 mmHg 17%
11:00 +40°C° 0 mm 4 m/s 710 mmHg 17%
12:00 +41°C° 0 mm 4 m/s 710 mmHg 18%
13:00 +41°C° 0 mm 5 m/s 710 mmHg 19%
14:00 +40°C° 0 mm 4 m/s 710 mmHg 22%
15:00 +38°C° 0 mm 4 m/s 710 mmHg 25%
16:00 +37°C° 0 mm 3 m/s 710 mmHg 27%
17:00 +35°C° 0 mm 2 m/s 710 mmHg 33%
18:00 +32°C° 0 mm 2 m/s 710 mmHg 39%
19:00 +30°C° 0 mm 2 m/s 710 mmHg 45%
20:00 +29°C° 0 mm 2 m/s 710 mmHg 45%
21:00 +29°C° 0 mm 1 m/s 710 mmHg 46%
22:00 +28°C° 0 mm 1 m/s 710 mmHg 46%
23:00 +27°C° 0 mm 1 m/s 710 mmHg 52%
Arată mai mult

Formular de consimțământ

Meteoprog și furnizorii noștri de servicii pot stoca și accesa date personale, precum cookies, identificatori de dispozitiv sau alte tehnologii similare pe dispozitivul dumneavoastră și procesa astfel de date pentru a personaliza conținutul și reclamele, dar și pentru a oferi caracteristici de social media și pentru a analiza traficul.

  • Stocarea și/sau accesarea informațiilor pe dispozitivul dumneavoastră

    Cookies, identificatori de dispozitiv sau alte informații pot fi stocate sau accesate pe dispozitiv în scopurile indicate mai sus.

  • Reclame și conținut personalizat, evaluarea reclamelor și a conținutului, informații despre audiențe și dezvoltarea produselor

    Reclamele și conținutul pot fi personalizate pe baza unui profil. Pot fi adăugate date suplimentare pentru a personaliza mai bine reclamele și conținutul. Performanța reclamelor și conținutului poate fi măsurată. Pot fi obținute informații despre utilizatorii care au văzut reclamele și conținutul. Aceste date pot fi utilizate pentru a dezvolta sau îmbunătăți experiența utilizatorilor, sistemele și software-ul.

Dând clic pe ‘Sunt de acord’, permiteți utilizarea cookie-urilor menționate, a identificatorilor de dispozitiv, balizelor web sau altor tehnologii similare. Setările pot fi modificate din browser-ul dispozitivului dumneavoastră.

În anumite scopuri, interesele legitime pot prima asupra consimțământului. Puteți citi mai multe informații în acest sens în Politica privind Confidențialitatea Datelor și Cookie.